Stations météo

Publicité
Charleville, France (7075): Température de l'air & dewpoint: 06.12.2018 02:00:00 - 12.12.2018 02:00:00 (CET)Charleville, France (7075): Température de l'air 5cm: 06.12.2018 02:00:00 - 12.12.2018 02:00:00 (CET)Charleville, France (7075): Température de l'air -20cm & Température de l'air -100cm: 06.12.2018 02:00:00 - 12.12.2018 02:00:00 (CET)Charleville, France (7075): Vitesse du vent & gusts: 06.12.2018 02:00:00 - 12.12.2018 02:00:00 (CET)Charleville, France (7075): Direction du vent: 06.12.2018 02:00:00 - 12.12.2018 02:00:00 (CET)Charleville, France (7075): reduced air pressure: 06.12.2018 02:00:00 - 12.12.2018 02:00:00 (CET)Charleville, France (7075): visibility: 06.12.2018 02:00:00 - 12.12.2018 02:00:00 (CET)Charleville, France (7075): Ensoleillement: 06.12.2018 02:00:00 - 12.12.2018 02:00:00 (CET)Charleville, France (7075): Quantités de précipitations: 06.12.2018 02:00:00 - 12.12.2018 02:00:00 (CET)
Date & Time tt [°C] td [°C] tt 5cm [°C] tt -20cm [°C] tt -100cm [°C] ff [km/h] ff [knt] fx [km/h] fx [knt] dd ppp [hPa] vv [km] sd [min] rr [mm]
12.12.2018 02:00:00 -0,3 -0,6 0,2 7,4 10,6 4 2 10 5 NE 1025,7 0,1 0 0,0
12.12.2018 01:00:00 0,5 0,2 0,8 7,4 10,5 6 3 9 5 NNW 1025,9 0,1 0 0,0
12.12.2018 00:00:00 1,0 0,7 1,3 7,4 10,5 2 1 5 3 E 1026,1 0,6 0 0,0
11.12.2018 23:00:00 1,3 1,0 1,4 7,4 10,6 2 1 8 4 ENE 1026,1 0,2 0 0,0
11.12.2018 22:00:00 1,2 0,9 1,5 7,4 10,6 4 2 8 5 NW 1026,2 0,3 0 0,0
11.12.2018 21:00:00 1,2 0,9 1,2 7,4 10,6 3 2 7 4 NNE 1026,5 0,2 0 0,0
11.12.2018 20:00:00 0,8 0,5 1,2 7,4 10,6 4 2 9 5 NNE 1026,5 0,2 0 0,0
11.12.2018 19:00:00 1,4 1,0 1,7 7,5 10,6 4 2 7 4 NNE 1026,4 0,2 0 0,0
11.12.2018 18:00:00 2,1 1,7 2,3 7,4 10,6 3 2 9 5 NNE 1026,0 0,4 0 0,0
11.12.2018 17:00:00 2,4 2,0 0,7 7,4 10,6 4 2 9 5 N 1026,0 6 0 0,0
11.12.2018 16:00:00 2,5 1,6 1,5 7,4 10,6 2 1 5 3 SSW 1025,9 9 0 0,0
11.12.2018 15:00:00 3,0 2,3 3,9 7,4 10,6 3 2 7 4 N 1026,0 8 0 0,0
11.12.2018 14:00:00 2,8 2,2 3,7 7,4 10,6 4 2 9 5 W 1026,4 8 0 0,0
11.12.2018 13:00:00 2,5 2,2 3,5 7,4 10,6 3 2 9 5 ENE 1027,0 8 0 0,0
11.12.2018 12:00:00 2,0 1,7 3,1 7,4 10,6 3 2 9 5 ESE 1027,3 7 0 0,0
11.12.2018 11:00:00 1,2 1,1 1,4 7,4 10,6 5 3 11 6 E 1027,7 0,8 0 0,0
11.12.2018 10:00:00 0,4 0,1 0,7 7,5 10,6 5 3 16 9 SE 1027,4 0,2 0 0,0
11.12.2018 09:00:00 0,3 0,0 0,8 7,5 10,6 9 5 16 9 NW 1026,9 0,1 0 0,0
11.12.2018 08:00:00 0,9 0,6 1,2 7,5 10,6 7 4 13 7 WNW 1026,8 0,2 0 0,0
11.12.2018 07:00:00 1,3 1,0 1,4 7,6 10,6 4 2 9 5 NW 1026,9 0,5 0 0,0
11.12.2018 06:00:00 1,3 1,0 1,2 7,7 10,6 3 2 10 5 NNW 1027,3 1,8 0 0,0
11.12.2018 05:00:00 1,2 0,9 1,2 7,7 10,6 6 3 10 6 NW 1027,2 2,0 0 0,0
11.12.2018 04:00:00 1,2 0,9 0,9 7,8 10,6 4 2 11 6 W 1027,4 0,6 0 0,0
11.12.2018 03:00:00 1,0 0,7 0,2 7,8 10,6 3 2 9 5 N 1027,5 0,2 0 0,0
11.12.2018 02:00:00 0,2 -0,1 -2,1 7,9 10,6 2 1 7 4 SW 1027,2 0,2 0 0,0
11.12.2018 01:00:00 -1,7 -2,1 -3,6 8,0 10,6 1 1 5 3 SE 1027,8 0,3 0 0,0
11.12.2018 00:00:00 -1,8 -2,4 -4,0 8,0 10,6 4 2 10 5 E 1027,8 0,8 0 0,0
10.12.2018 23:00:00 -0,8 -1,4 -3,6 8,1 10,6 4 2 9 5 WNW 1027,4 1,4 0 0,0
10.12.2018 22:00:00 0,0 -0,6 -2,9 8,1 10,6 2 1 3 2 W 1027,4 1,4 0 0,0
10.12.2018 21:00:00 1,3 0,4 -1,4 8,1 10,6 1 1 6 4 N 1027,1 6 0 0,0
10.12.2018 20:00:00 2,3 0,8 0,9 8,2 10,6 3 2 11 6 N 1026,8 11 0 0,0
10.12.2018 19:00:00 4,5 2,5 3,1 8,2 10,6 8 5 19 10 WNW 1026,4 20 0 0,0
10.12.2018 18:00:00 5,9 3,4 4,8 8,2 10,6 12 7 23 13 WNW 1026,2 20 0 0,0
10.12.2018 17:00:00 6,7 3,5 4,8 8,1 10,6 13 7 27 15 W 1026,1 20 0 0,0
10.12.2018 16:00:00 6,6 3,2 6,0 8,1 10,6 18 10 27 15 WNW 1025,9 11 5 0,0
10.12.2018 15:00:00 7,3 3,2 7,1 8,1 10,6 17 9 31 17 WNW 1025,6 20 9 0,0
10.12.2018 14:00:00 7,7 3,4 8,5 8,1 10,6 19 10 34 18 W 1025,8 20 36 0,0
10.12.2018 13:00:00 7,8 4,4 7,8 8,1 10,6 16 9 31 17 W 1025,8 20 23 0,0
10.12.2018 12:00:00 7,1 4,2 7,5 8,1 10,6 15 8 25 13 W 1026,0 20 1 0,0
10.12.2018 11:00:00 6,5 4,3 6,6 8,2 10,6 13 7 26 14 W 1026,2 20 5 0,0
10.12.2018 10:00:00 6,3 4,5 4,2 8,2 10,6 13 7 24 13 W 1025,6 20 10 0,0
10.12.2018 09:00:00 4,0 3,3 2,9 8,2 10,6 4 2 10 5 NW 1025,2 20 0 0,0
10.12.2018 08:00:00 2,8 2,2 1,8 8,3 10,6 1 1 5 3 NW 1024,9 20 0 0,0
10.12.2018 07:00:00 2,1 1,5 0,3 8,4 10,6 5 3 7 4 NNW 1024,6 18 0 0,0
10.12.2018 06:00:00 1,8 0,8 0,1 8,4 10,6 3 2 8 5 NNW 1024,2 18 0 0,0
10.12.2018 05:00:00 2,0 1,0 -0,3 8,5 10,6 5 3 8 4 NW 1023,8 20 0 0,0
10.12.2018 04:00:00 3,6 1,5 0,8 8,5 10,6 5 3 11 6 W 1023,2 20 0 0,0
10.12.2018 03:00:00 5,0 2,7 3,4 8,6 10,6 8 4 22 12 W 1022,6 20 0 0,0
10.12.2018 02:00:00 5,8 4,0 2,2 8,6 10,6 11 6 18 10 W 1021,9 20 0 0,0
10.12.2018 01:00:00 3,7 2,4 1,6 8,7 10,6 7 4 18 10 WNW 1021,4 20 0 0,0
10.12.2018 00:00:00 4,6 3,4 2,3 8,7 10,6 10 6 16 9 WNW 1020,6 20 0 0,0
09.12.2018 23:00:00 3,8 2,5 2,5 8,7 10,6 10 5 18 10 NW 1020,0 20 0 0,0
09.12.2018 22:00:00 5,1 3,1 4,0 8,8 10,6 11 6 23 13 WNW 1018,9 20 0 0,0
09.12.2018 21:00:00 5,7 3,4 4,5 8,8 10,6 13 7 31 17 W 1017,8 20 0 0,0
09.12.2018 20:00:00 6,9 4,0 5,9 8,8 10,6 22 12 45 24 WNW 1016,6 20 0 0,0
09.12.2018 19:00:00 7,8 4,4 6,5 8,8 10,6 23 12 43 23 WNW 1015,5 20 0 0,0
09.12.2018 18:00:00 7,9 4,8 6,8 8,8 10,6 21 11 44 24 WNW 1013,5 20 0 0,0
09.12.2018 17:00:00 8,2 5,1 7,4 8,8 10,6 23 12 36 20 WNW 1011,7 20 0 0,0
09.12.2018 16:00:00 8,7 5,4 7,4 8,8 10,6 26 14 43 23 WNW 1009,7 20 7 0,0
09.12.2018 15:00:00 8,5 5,9 6,1 8,8 10,6 18 10 29 16 WNW 1007,9 20 2 0,0
09.12.2018 14:00:00 7,0 5,0 6,2 8,8 10,6 14 8 - - W 1007,1 20 0 1,4
09.12.2018 13:00:00 8,9 6,9 8,1 8,8 10,6 24 13 55 30 W 1005,7 16 17 1,0
09.12.2018 12:00:00 8,8 6,6 6,9 8,9 10,6 21 11 45 24 WSW 1005,4 20 1 0,2
09.12.2018 11:00:00 7,4 5,4 6,7 8,9 10,6 24 13 48 26 W 1005,8 14 0 2,0
09.12.2018 10:00:00 8,0 5,6 6,9 8,9 10,6 26 14 51 28 WSW 1005,3 11 14 0,4
09.12.2018 09:00:00 7,8 5,6 6,7 8,9 10,6 22 12 49 26 WSW 1005,1 20 1 0,8
09.12.2018 08:00:00 7,5 5,8 6,3 9,0 10,6 21 11 63 34 W 1004,6 6 0 4,9
09.12.2018 07:00:00 7,6 5,2 6,6 9,0 10,6 26 14 54 29 WSW 1004,7 8 0 1,4
09.12.2018 06:00:00 8,0 5,1 7,1 9,0 10,6 24 13 61 33 WSW 1004,0 14 0 0,0
09.12.2018 05:00:00 8,3 4,5 6,5 9,1 10,6 31 17 59 32 W 1003,5 19 0 0,0
09.12.2018 04:00:00 7,8 5,6 6,0 9,0 10,6 23 12 61 33 W 1003,1 12 0 2,2
09.12.2018 03:00:00 8,2 5,5 7,1 9,0 10,6 22 12 63 34 W 1003,1 11 0 1,2
09.12.2018 02:00:00 8,9 5,5 6,8 9,0 10,6 18 10 58 31 WSW 1002,7 20 0 0,0
09.12.2018 01:00:00 9,3 5,5 7,3 9,1 10,6 30 16 71 39 W 1002,7 20 0 1,6
09.12.2018 00:00:00 9,8 6,5 7,9 9,0 10,6 24 13 49 26 WSW 1002,4 15 0 0,2
08.12.2018 23:00:00 9,6 6,7 7,9 9,0 10,6 23 12 63 34 W 1002,6 20 0 0,8
08.12.2018 22:00:00 10,8 7,8 9,1 9,0 10,6 26 14 80 43 WSW 1002,5 20 0 0,0
08.12.2018 21:00:00 10,0 8,6 9,2 9,0 10,6 22 12 59 32 SW 1003,1 6 0 2,0
08.12.2018 20:00:00 9,8 8,4 8,6 9,0 10,6 28 15 57 31 SW 1004,3 20 0 1,0
08.12.2018 19:00:00 9,1 - 8,0 9,0 10,6 22 12 48 26 SSW - 9 0 1,0
08.12.2018 18:00:00 8,5 7,1 7,9 9,0 10,6 19 10 50 27 SW 1007,7 4,9 0 1,2
08.12.2018 17:00:00 8,6 6,6 7,8 8,9 10,6 24 13 50 27 SW 1008,8 14 0 0,2
08.12.2018 16:00:00 9,1 6,0 8,8 9,0 10,6 19 10 47 25 SW 1009,5 19 0 0,0
08.12.2018 15:00:00 9,3 5,8 9,3 9,0 10,6 26 14 54 29 SW 1009,8 20 3 0,0
08.12.2018 14:00:00 9,4 5,9 8,0 8,9 10,6 24 13 52 28 WSW 1010,4 20 3 0,2
08.12.2018 13:00:00 8,7 6,0 7,5 9,0 10,6 22 12 52 28 WSW 1010,6 18 6 0,0
08.12.2018 12:00:00 8,0 6,0 7,3 9,0 10,6 24 13 54 29 WSW 1010,8 14 2 0,4
08.12.2018 11:00:00 7,7 5,7 6,7 9,0 10,6 23 13 58 31 WSW 1011,1 17 0 0,0
08.12.2018 10:00:00 7,2 5,2 6,2 9,0 10,6 29 15 56 30 SW 1010,7 20 0 0,6
08.12.2018 09:00:00 6,8 4,9 5,7 9,1 10,6 27 14 51 27 SW 1010,9 11 0 0,2
08.12.2018 08:00:00 6,7 4,5 5,5 9,1 10,6 25 14 57 31 SW 1010,6 17 0 0,2
08.12.2018 07:00:00 6,1 4,3 5,2 9,2 10,6 26 14 50 27 SW 1010,7 10 0 0,8
08.12.2018 06:00:00 6,1 3,8 5,1 9,3 10,6 23 12 54 29 SW 1011,3 20 0 0,2
08.12.2018 05:00:00 6,3 3,5 5,9 9,3 10,6 24 13 49 26 SW 1011,7 20 0 0,0
08.12.2018 04:00:00 6,4 3,4 5,7 9,4 10,6 21 12 49 26 SW 1011,8 20 0 0,0
08.12.2018 03:00:00 6,6 3,7 5,1 9,4 10,6 22 12 45 24 SW 1012,1 20 0 0,0
08.12.2018 02:00:00 5,9 3,7 4,9 9,5 10,6 13 7 35 19 SW 1012,0 20 0 0,4
08.12.2018 01:00:00 6,2 3,5 5,3 9,5 10,6 21 12 44 24 WSW 1012,3 14 0 0,4
08.12.2018 00:00:00 6,6 3,7 5,7 9,5 10,6 18 10 41 22 WSW 1011,9 18 0 0,2
07.12.2018 23:00:00 6,9 3,7 5,8 9,6 10,6 22 12 42 23 WSW 1011,4 20 0 0,0
07.12.2018 22:00:00 7,1 3,7 6,2 9,7 10,6 20 11 42 23 WSW 1010,5 20 0 0,0
07.12.2018 21:00:00 7,4 4,2 6,0 9,6 10,5 18 10 45 25 W 1009,5 20 0 0,0
07.12.2018 20:00:00 7,6 4,9 6,6 9,7 10,6 16 9 49 27 WSW 1008,0 20 0 0,0
07.12.2018 19:00:00 8,0 4,8 6,8 9,7 10,6 22 12 53 29 W 1006,5 20 0 0,0
07.12.2018 18:00:00 8,0 5,1 6,6 9,7 10,5 18 10 63 34 W 1005,3 20 0 0,8
07.12.2018 17:00:00 8,6 5,9 7,6 9,7 10,6 37 20 68 37 W 1004,4 6 0 4,0
07.12.2018 16:00:00 9,9 8,7 9,4 9,7 10,6 26 14 57 31 S 1003,0 5 0 2,8
07.12.2018 15:00:00 9,8 8,4 9,4 9,6 10,6 22 12 49 26 S 1004,7 6 0 2,2
07.12.2018 14:00:00 10,3 8,4 9,7 9,6 10,5 21 12 45 24 S 1006,3 12 0 0,0
07.12.2018 13:00:00 10,6 8,0 9,8 9,6 10,6 14 8 61 33 S 1008,0 20 0 0,0
07.12.2018 12:00:00 10,3 8,7 9,9 9,6 10,6 23 12 47 26 SSW 1010,0 13 0 0,4
07.12.2018 11:00:00 10,2 9,3 10,0 9,6 10,6 18 10 35 19 S 1011,7 3,6 0 0,4
07.12.2018 10:00:00 10,2 9,1 10,0 9,6 10,6 16 8 28 15 S 1012,9 6 0 0,0
07.12.2018 09:00:00 10,2 9,3 9,8 9,6 10,6 15 8 29 16 SSW 1013,8 6 0 0,2
07.12.2018 08:00:00 10,1 9,2 9,9 9,6 10,6 11 6 26 14 SSW 1014,4 4,9 0 0,0
07.12.2018 07:00:00 10,4 9,2 10,0 9,6 10,6 11 6 24 13 SSW 1014,9 8 0 0,0
07.12.2018 06:00:00 10,5 8,9 10,0 9,5 10,6 11 6 29 16 S 1015,4 8 0 0,0
07.12.2018 05:00:00 10,8 8,7 10,5 9,6 10,6 11 6 24 13 SSW 1016,4 20 0 0,0
07.12.2018 04:00:00 11,0 8,9 10,8 9,5 10,6 11 6 27 15 SSW 1017,0 20 0 0,0
07.12.2018 03:00:00 11,2 9,3 11,0 9,5 10,6 10 5 25 14 SSW 1017,9 20 0 0,0
07.12.2018 02:00:00 11,6 9,5 11,2 9,5 10,6 15 8 34 18 SW 1018,5 19 0 0,0
07.12.2018 01:00:00 11,7 9,6 10,9 9,4 10,6 14 8 31 17 SW 1019,0 20 0 0,0
07.12.2018 00:00:00 11,7 9,8 10,9 9,4 10,6 14 8 28 15 SW 1019,5 20 0 0,0
06.12.2018 23:00:00 11,8 10,2 11,3 9,4 10,6 13 7 29 16 SW 1019,7 10 0 0,2
06.12.2018 22:00:00 11,7 10,4 11,3 9,3 10,6 11 6 29 16 SW 1019,8 13 0 0,0
06.12.2018 21:00:00 11,7 10,6 11,3 9,3 10,6 14 8 28 15 WSW 1020,0 10 0 0,2
06.12.2018 20:00:00 11,7 10,6 11,3 9,2 10,5 13 7 28 15 WSW 1020,0 8 0 0,0
06.12.2018 19:00:00 11,7 10,4 11,3 9,2 10,5 13 7 32 17 SW 1019,9 9 0 0,0
06.12.2018 18:00:00 12,0 10,2 11,5 9,2 10,6 11 6 25 13 WSW 1020,0 20 0 0,0
06.12.2018 17:00:00 12,0 10,2 11,6 9,1 10,6 8 5 26 14 WSW 1020,0 20 0 0,0
06.12.2018 16:00:00 12,0 10,2 11,7 9,0 10,6 11 6 24 13 SW 1019,5 20 0 0,0
06.12.2018 15:00:00 12,2 10,4 12,1 9,0 10,5 11 6 23 13 SW 1019,4 20 0 0,0
06.12.2018 14:00:00 12,1 10,5 12,2 8,9 10,6 10 5 19 10 SW 1019,6 12 0 0,0
06.12.2018 13:00:00 12,0 10,4 12,7 8,9 10,6 8 4 24 13 SSW 1019,9 18 0 0,0
06.12.2018 12:00:00 11,7 10,3 12,1 8,9 10,6 9 5 26 14 SW 1020,0 14 0 0,0
06.12.2018 11:00:00 11,4 10,1 11,5 8,8 10,5 9 5 18 10 WSW 1019,7 15 0 0,0
06.12.2018 10:00:00 10,9 10,0 10,4 8,8 10,5 7 4 13 7 SW 1019,2 11 0 0,0
06.12.2018 09:00:00 10,4 9,8 9,4 8,8 10,5 2 1 8 5 SW 1018,8 10 0 0,0
06.12.2018 08:00:00 9,7 9,2 9,3 8,8 10,5 1 1 9 5 W 1018,0 4,5 0 0,0
06.12.2018 07:00:00 9,7 9,2 9,2 8,8 10,6 4 2 6 4 ENE 1017,4 6 0 0,0
06.12.2018 06:00:00 9,2 8,7 9,0 8,7 10,5 1 1 6 3 S 1017,0 4,3 0 0,0
06.12.2018 05:00:00 9,4 8,9 8,9 8,7 10,5 3 1 7 4 N 1016,6 4,7 0 0,0
06.12.2018 04:00:00 8,9 8,4 8,6 8,7 10,5 5 3 9 5 SE 1015,9 8 0 0,0
06.12.2018 03:00:00 8,7 8,2 8,4 8,7 10,5 6 3 11 6 ESE 1015,8 10 0 0,2
06.12.2018 02:00:00 8,5 8,1 8,4 8,7 10,5 8 4 13 7 ESE 1015,8 4,4 0 0,6

tt = Température de l'air
td = dewpoint
tt 5cm = Température de l'air 5cm
tt -20cm = Température de l'air -20cm
tt -100cm = Température de l'air -100cm
ff = Vitesse du vent
fx = gusts
dd = Direction du vent
ppp = reduced air pressure
vv = visibility
sd = Ensoleillement
rr = Quantités de précipitations

stations d'obs. à proximité